Tracking 28790 objects as of 19-Apr-2024
HD Live streaming from Space Station
objects crossing your sky now

METEOR 2-5 DEB

Track METEOR 2-5 DEB now!
10-day predictions


NORAD ID: 36911
Int'l Code: 1979-095BC
Perigee: 790.9 km
Apogee: 824.4 km
Inclination: 81.2 °
Period: 100.9 minutes
Semi major axis: 7178 km
RCS: 0.0173 m2 (small)
Launch date: October 31, 1979
Source: Commonwealth of Independent States (former USSR) (CIS)
Launch site: PLESETSK MISSILE AND SPACE COMPLEX (PKMTR)

Note: This is SATELLITE DEBRIS
Your satellite tracking list
Your tracking list is empty




NASA's NSSDC Master Catalog

Two Line Element Set (TLE):
1 36911U 79095BC  24108.53650721  .00017461  00000-0  70866-2 0  9992
2 36911  81.1942 197.9591 0023338 177.6866 182.4427 14.27386154557374
Source of the keplerian elements: AFSPC